Content
SEND FEEDBACK

Daily
Averages
Monthly
Summary
United States of America

HATTERAS, NORTH CAROLINA


Home > North America > United States > North Carolina
Elevation: 0 feet     Latitude: 35 13N     Longitude: 075 41W

WEATHER
 
SELECT A DAY
Number of Records: 207,544;   Date Range: 1/1/95 - 8/12/14
 
SHARE

PRINT THIS DATA

[ ← Previous Day ]
WEATHER ALMANAC - JANUARY 31, 2013
[ Next Day → ]
[ °C ]   °F
Weather ElementAverageHighLow
Temperature56.8 °F68 °F (1:51 am)48 °F (9:51 pm)
Dewpoint46.5 °F64.4 °F (4:15 am)28 °F (7:51 pm)
Humidity70.7 %96 % (4:51 am)40 % (2:51 pm)
Barometer29.72 in30.04 in (11:51 pm)29.51 in (3:51 am)
Wind Speed19.3 mph32.2 mph (1:51 am)
Wind Gust52.9 mph (2:51 am)
Weather ElementAverage
Visibility7.1 mi
Wind DirectionWSW (258.9 °)

Weather ElementTotal
Precipitation0.82 in
Heating Degree Days7 (Base 65)
Growing Degree Days8 (Base 50)
Averaged from 35 records on January 31, 2013
WEATHER CONDITIONS BREAKOUT
WIND DIRECTION BREAKOUT
WEATHER BY HOUR - JANUARY 31, 2013
[ °C ]   °F
Local TimeTemperatureDewpointHumidityBarometerVisibilityWind DirectionWind SpeedGust SpeedPrecipitationEventsConditions
1:51 AM68.0 °F62.1 °F81 %29.59 in5.0 miSSW (200°)32.2 mph48.3 mphHaze
2:03 AM68.0 °F62.6 °F83 %29.57 in5.0 miSSW (200°)31.1 mph48.3 mphHaze
2:51 AM68.0 °F63.0 °F84 %29.53 in5.0 miSSW (200°)32.2 mph52.9 mphHaze
3:21 AM68.0 °F62.6 °F83 %29.52 in4.0 miSSW (200°)27.6 mph40.3 mphHaze
3:51 AM68.0 °F63.0 °F84 %29.51 in4.0 miSSW (210°)32.2 mph49.5 mph0.00 inRainLight Rain
4:15 AM66.2 °F64.4 °F94 %29.54 in1.5 miWSW (250°)28.8 mph43.7 mph0.03 inRainRain
4:22 AM64.4 °F62.6 °F94 %29.55 in1.5 miWest (270°)23.0 mph47.2 mph0.10 inRainLight Rain
4:25 AM62.6 °F60.8 °F94 %29.56 in2.5 miWest (270°)20.7 mph47.2 mph0.10 inRainLight Rain
4:32 AM60.8 °F57.2 °F88 %29.56 in3.0 miWest (270°)20.7 mph33.4 mph0.12 inRainRain
4:51 AM59.0 °F57.9 °F96 %29.57 in3.0 miWest (260°)17.3 mph29.9 mph0.17 inRainRain
5:08 AM59.0 °F57.2 °F94 %29.57 in1.8 miWSW (250°)20.7 mph29.9 mph0.08 inRainHeavy Rain
5:18 AM59.0 °F57.2 °F94 %29.57 in3.0 miWSW (250°)19.6 mph31.1 mph0.11 inRainLight Rain
5:51 AM57.0 °F53.1 °F87 %29.58 in6.0 miWSW (250°)21.9 mph43.7 mph0.11 inMostly Cloudy
6:51 AM55.9 °F52.0 °F87 %29.64 in6.0 miWSW (250°)19.6 mph34.5 mph0.00 inMostly Cloudy
7:03 AM55.4 °F51.8 °F88 %29.65 in4.0 miWest (260°)16.1 mph34.5 mphMostly Cloudy
7:13 AM55.4 °F50.0 °F82 %29.66 in4.0 miWest (260°)24.2 mph39.1 mphHaze
7:22 AM55.4 °F48.2 °F77 %29.67 in10.0 miWest (260°)19.6 mph36.8 mphMostly Cloudy
7:37 AM55.4 °F48.2 °F77 %29.68 in10.0 miWest (260°)23.0 mph38.0 mphMostly Cloudy
7:51 AM54.0 °F46.0 °F75 %29.69 in10.0 miWest (260°)25.3 mph35.7 mphScattered Clouds
8:51 AM54.0 °F44.1 °F69 %29.73 in10.0 miWest (260°)25.3 mph35.7 mphPartly Cloudy
9:51 AM55.0 °F44.1 °F67 %29.75 in10.0 miWest (260°)19.6 mph31.1 mphClear
10:51 AM55.0 °F42.1 °F62 %29.78 in10.0 miWest (270°)16.1 mph32.2 mphClear
11:51 AM54.0 °F39.9 °F59 %29.79 in10.0 miWest (270°)18.4 mph33.4 mphClear
12:51 PM54.0 °F37.0 °F53 %29.80 in10.0 miWest (260°)18.4 mph29.9 mphClear
1:51 PM55.0 °F36.0 °F49 %29.80 in10.0 miWest (270°)12.7 mph27.6 mphClear
2:51 PM54.0 °F30.0 °F40 %29.82 in10.0 miWest (280°)15.0 mph26.5 mphClear
3:51 PM53.1 °F30.9 °F43 %29.84 in10.0 miWest (270°)10.4 mph17.3 mphClear
4:51 PM52.0 °F32.0 °F47 %29.87 in10.0 miWest (280°)10.4 mph17.3 mphClear
5:51 PM50.0 °F32.0 °F50 %29.91 in10.0 miWNW (290°)11.5 mph19.6 mphClear
6:51 PM50.0 °F33.1 °F52 %29.94 in10.0 miWNW (290°)10.4 mph19.6 mphClear
7:51 PM50.0 °F28.0 °F43 %29.98 in10.0 miWNW (290°)10.4 mph26.5 mphClear
8:51 PM48.9 °F32.0 °F52 %30.00 in10.0 miWNW (290°)9.2 mph18.4 mphClear
9:51 PM48.0 °F30.0 °F50 %30.01 in10.0 miWNW (290°)9.2 mph20.7 mphClear
10:51 PM48.0 °F30.0 °F50 %30.03 in10.0 miWest (270°)9.2 mph19.6 mphClear
11:51 PM48.0 °F28.0 °F46 %30.04 in10.0 miWNW (290°)13.8 mph25.3 mphClear
Hourly data recorded from KHSE, located miles away from Hatteras, North Carolina







STORIES FROM OUR PARTNERS